Home   Weather   Heraklion   Past weeks

Flag for Greece Past Weather in Heraklion, Crete, Greece — Yesterday and Last 2 Weeks

Now
70 °F

Passing clouds.


Feels Like: 70 °F
Forecast: 67 / 76 °F
Wind: 10 mph from Northwest

Location: Heraklion Airport

Current Time: Sep 27, 2016 at 1:33:14 AM

Latest Report: Sep 27, 2016 at 12:50 AM


Visibility: N/A

Pressure: 30.04 "Hg

Humidity: 64%

Dew Point: 57 °F

Location of HeraklionLocation

Past Weather in Heraklion — Graph

°F

Heraklion Temperature Yesterday

Maximum temperature yesterday: 75 °F (at 11:50 AM)
Minimum temperature yesterday: 70 °F (at 12:20 AM)
Average temperature yesterday: 72 °F

High & Low Weather Summary for the Past Weeks

 TemperatureHumidityPressure
High88 °F (Sep 18, 9:50 AM)94% (Sep 23, 2:50 AM)30.18 "Hg (Sep 23, 2:50 AM)
Low66 °F (Sep 20, 11:50 AM)40% (Sep 18, 9:50 AM)29.74 "Hg (Sep 20, 2:50 AM)
Average75 °F68%29.95 "Hg
* Reported Sep 12 12:20 AM — Sep 27 12:20 AM, Heraklion, Weather by CustomWeather, © 2016

Note: Actual official high and low records may vary slightly from our data, if they occured in-between our weather recording intervals... More about our weather records

Advertising

Heraklion Weather History for the Previous 24 Hours

Scroll right to see more
 ConditionsComfort  
Time TempWeatherWind HumidityBarometerVisibility
12:20 AM
Tue, Sep 27
72 °FPassing clouds.10 mph61%30.04 "HgN/A
11:50 PM
Mon, Sep 26
72 °FPassing clouds.10 mph61%30.04 "HgN/A
11:20 PM72 °FPassing clouds.9 mph61%30.04 "HgN/A
10:50 PM72 °FPassing clouds.10 mph61%30.04 "HgN/A
10:20 PM73 °FPassing clouds.12 mph53%30.04 "HgN/A
9:50 PM73 °FPassing clouds.12 mph53%30.04 "HgN/A
9:20 PM73 °FPassing clouds.14 mph53%30.04 "HgN/A
8:50 PM73 °FPassing clouds.14 mph53%30.04 "HgN/A
8:20 PM72 °FPassing clouds.14 mph61%29.98 "HgN/A
7:50 PM72 °FPassing clouds.14 mph61%29.98 "HgN/A
7:20 PM73 °FPassing clouds.15 mph53%29.98 "HgN/A
6:50 PM73 °FScattered clouds.15 mph53%29.98 "HgN/A
6:20 PM73 °FScattered clouds.14 mph53%29.98 "HgN/A
5:50 PM73 °FScattered clouds.14 mph53%29.98 "HgN/A
5:20 PM75 °FScattered clouds.14 mph54%30.01 "HgN/A
4:50 PM75 °FScattered clouds.16 mph54%30.01 "HgN/A
4:20 PM75 °FScattered clouds.15 mph54%30.01 "HgN/A
3:50 PM75 °FScattered clouds.15 mph54%30.01 "HgN/A
3:20 PM75 °FScattered clouds.13 mph54%30.01 "HgN/A
2:50 PM75 °FScattered clouds.13 mph54%30.01 "HgN/A
2:20 PM73 °FScattered clouds.15 mph57%29.98 "HgN/A
1:50 PM73 °FScattered clouds.15 mph57%29.98 "HgN/A
1:20 PM75 °FScattered clouds.13 mph65%29.98 "HgN/A
12:50 PM75 °FScattered clouds.14 mph65%29.98 "HgN/A
12:20 PM75 °FScattered clouds.14 mph65%29.98 "HgN/A
11:50 AM75 °FScattered clouds.13 mph65%29.98 "HgN/A
11:20 AM73 °FScattered clouds.14 mph65%29.98 "HgN/A
10:50 AM73 °FScattered clouds.14 mph65%29.98 "HgN/A
10:20 AM72 °FScattered clouds.13 mph57%29.98 "HgN/A
9:50 AM72 °FScattered clouds.13 mph57%29.98 "HgN/A
8:50 AM72 °FScattered clouds.14 mph57%29.95 "HgN/A
8:20 AM70 °FScattered clouds.14 mph57%29.95 "HgN/A
7:50 AM70 °FScattered clouds.13 mph60%29.95 "HgN/A
7:20 AM70 °FScattered clouds.12 mph60%29.95 "HgN/A
6:50 AM70 °FPassing clouds.12 mph60%29.95 "HgN/A
6:20 AM70 °FPassing clouds.13 mph60%29.95 "HgN/A
5:50 AM70 °FPassing clouds.13 mph60%29.95 "HgN/A
5:20 AM70 °FPassing clouds.13 mph57%29.95 "HgN/A
4:50 AM70 °FPassing clouds.13 mph57%29.95 "HgN/A
4:20 AM70 °FPassing clouds.13 mph57%29.95 "HgN/A
3:50 AM70 °FPassing clouds.13 mph57%29.95 "HgN/A
3:20 AM70 °FPassing clouds.13 mph57%29.95 "HgN/A
2:50 AM70 °FPassing clouds.13 mph57%29.95 "HgN/A
2:20 AM70 °FPassing clouds.13 mph57%29.98 "HgN/A
1:50 AM70 °FPassing clouds.13 mph57%29.98 "HgN/A
1:20 AM70 °FPassing clouds.13 mph57%29.98 "HgN/A
Weather by CustomWeather, © 2016

See weather overviewHow to use our weather pages